DW2513 Weather Reports


Display with metric or nautical units.
time (UTC)temp
F
wind
direction
speed
MPH
gust
MPH
rain 1hr
in
rain 24hr
in
rain mn
in
humidity
%
barometer
mb
20260504184804 68 142 1.0 9.0 0.00 0.01 0.01 26 1002.5
20260504184305 68 54 0.0 3.0 0.00 0.01 0.01 26 1002.5
20260504183804 68 191 1.0 3.0 0.00 0.01 0.01 27 1002.5
20260504183305 68 123 2.0 9.0 0.00 0.01 0.01 26 1002.5
20260504182805 68 95 3.0 9.0 0.00 0.01 0.01 27 1002.5
20260504182304 68 176 1.0 7.0 0.00 0.01 0.01 27 1002.5
20260504180804 66 65 2.0 6.0 0.00 0.01 0.01 28 1002.5
20260504175304 64 114 1.0 9.0 0.00 0.01 0.01 28 1002.6
20260504173805 64 23 0.0 3.0 0.00 0.01 0.01 30 1002.6
20260504172804 64 196 0.0 2.0 0.00 0.01 0.01 29 1002.6
20260504172304 64 141 0.0 2.0 0.00 0.01 0.01 28 1002.6
20260504171804 65 137 0.0 3.0 0.00 0.01 0.01 29 1002.6
20260504170804 64 122 1.0 8.0 0.00 0.01 0.01 29 1002.6
20260504160305 62 113 1.0 9.0 0.00 0.01 0.01 31 1003.3
20260504130804 56 211 0.0 3.0 0.00 0.01 0.01 38 1004.7
20260504100304 41 127 0.0 0.0 0.00 0.01 0.01 76 1005.1
20260504081304 39 127 0.0 0.0 0.00 0.01 0.01 72 1005.3
20260504080805 38 127 0.0 0.0 0.00 0.01 0.01 72 1005.3
20260504070305 37 127 0.0 0.0 0.00 0.01 0.01 74 1005.2
20260504050304 37 127 0.0 0.0 0.00 0.00 0.00 68 1005.7
20260504045804 36 127 0.0 0.0 0.00 0.00 0.00 68 1005.7
20260504045304 36 127 0.0 0.0 0.00 0.00 0.00 68 1005.7
20260504044804 36 127 0.0 0.0 0.00 0.00 0.00 68 1005.7
20260504043305 37 127 0.0 0.0 0.00 0.00 0.00 67 1005.7
20260504041805 36 127 0.0 0.0 0.00 0.00 0.00 66 1005.7
20260504041304 36 127 0.0 0.0 0.00 0.00 0.00 65 1005.7
20260504040820 36 127 0.0 0.0 0.00 0.00 0.00 65 1005.7
20260504040305 36 127 0.0 0.0 0.00 0.00 0.00 65 1005.6
20260504035805 36 127 0.0 0.0 0.00 0.00 0.00 64 1005.6
20260504032804 37 127 0.0 0.0 0.00 0.00 0.00 62 1005.6
20260504031805 37 127 0.0 0.0 0.00 0.00 0.00 60 1005.6
20260504031304 37 127 0.0 0.0 0.00 0.00 0.00 60 1005.6
20260504030305 38 127 0.0 0.0 0.00 0.00 0.00 59 1005.6
20260504025304 38 127 0.0 0.0 0.00 0.00 0.00 58 1005.1
20260504022805 39 127 0.0 0.0 0.00 0.00 0.00 54 1005.1
20260504021304 39 127 0.0 0.0 0.00 0.00 0.00 53 1005.1
20260504020805 40 127 0.0 0.0 0.00 0.00 0.00 52 1005.1
20260504015305 41 127 0.0 0.0 0.00 0.00 0.00 51 1005.1
20260504014805 41 127 0.0 0.0 0.00 0.00 0.00 49 1005.1
20260504014304 41 127 0.0 0.0 0.00 0.00 0.00 49 1005.1
20260504013804 41 127 0.0 0.0 0.00 0.00 0.00 48 1005.1
20260504010304 44 127 0.0 0.0 0.00 0.00 0.00 48 1004.8
20260504003804 44 127 0.0 0.0 0.00 0.00 0.00 43 1004.6
20260504003304 45 127 0.0 0.0 0.00 0.00 0.00 43 1004.4
20260504002805 45 127 0.0 0.0 0.00 0.00 0.00 41 1004.4
20260504002305 45 127 0.0 0.0 0.00 0.00 0.00 44 1004.3
20260504001305 45 127 0.0 0.0 0.00 0.00 0.00 39 1003.8
20260504000305 46 127 0.0 0.0 0.00 0.00 0.00 38 1003.8
20260503235304 47 127 0.0 0.0 0.00 0.00 0.00 38 1003.8
20260503234804 47 127 0.0 0.0 0.00 0.00 0.00 37 1003.8
20260503234305 47 127 0.0 0.0 0.00 0.00 0.00 35 1003.8
20260503233305 48 127 0.0 0.0 0.00 0.00 0.00 35 1003.8
20260503232805 49 127 0.0 0.0 0.00 0.00 0.00 35 1003.8
20260503232305 49 127 0.0 2.0 0.00 0.00 0.00 33 1003.8
20260503231804 49 106 0.0 0.0 0.00 0.00 0.00 32 1003.8
20260503231304 49 88 1.0 3.0 0.00 0.00 0.00 30 1003.8
20260503230304 50 165 0.0 0.0 0.00 0.00 0.00 31 1003.7
20260503225804 50 165 0.0 0.0 0.00 0.00 0.00 30 1003.7
20260503224304 50 183 0.0 3.0 0.00 0.00 0.00 30 1003.7
20260503223804 50 182 2.0 6.0 0.00 0.00 0.00 30 1003.7
20260503223304 50 29 1.0 6.0 0.00 0.00 0.00 30 1003.7
20260503222805 50 168 1.0 5.0 0.00 0.00 0.00 31 1003.7
20260503220805 50 175 1.0 5.0 0.00 0.00 0.00 30 1003.6
20260503214305 50 65 1.0 5.0 0.00 0.00 0.00 30 1003.6
20260503213804 50 109 2.0 7.0 0.00 0.00 0.00 30 1003.6
20260503212804 50 146 2.0 7.0 0.00 0.00 0.00 30 1003.5
20260503212305 50 150 1.0 5.0 0.00 0.00 0.00 30 1003.6
20260503211804 50 231 1.0 10.0 0.00 0.00 0.00 29 1003.6
20260503211304 50 128 1.0 6.0 0.00 0.00 0.00 31 1003.6
20260503205804 50 154 3.0 9.0 0.00 0.00 0.00 30 1003.6
20260503205304 50 158 1.0 3.0 0.00 0.00 0.00 31 1003.6
20260503204304 49 236 1.0 7.0 0.00 0.00 0.00 31 1003.6
20260503203805 50 74 0.0 2.0 0.00 0.00 0.00 31 1003.6
20260503202804 50 118 3.0 7.0 0.00 0.00 0.00 30 1003.6
20260503202304 50 167 2.0 6.0 0.00 0.00 0.00 30 1003.6
20260503201805 50 150 1.0 6.0 0.00 0.00 0.00 31 1003.6
20260503200804 50 166 2.0 7.0 0.00 0.00 0.00 30 1003.6
20260503195805 50 91 1.0 6.0 0.00 0.00 0.00 30 1003.6
20260503194304 50 113 2.0 10.0 0.00 0.00 0.00 29 1003.6
20260503193804 50 110 4.0 12.0 0.00 0.00 0.00 29 1003.7
20260503192805 49 145 2.0 6.0 0.00 0.00 0.00 30 1003.7
20260503192305 49 48 2.0 6.0 0.00 0.00 0.00 30 1003.7
20260503191805 49 32 1.0 10.0 0.00 0.00 0.00 31 1003.7
20260503190805 49 224 3.0 10.0 0.00 0.00 0.00 30 1003.7